GW6471 Weather Reports


time (UTC)temp
F
wind
direction
speed
knots
gust
knots
rain 1hr
in
rain 24hr
in
rain mn
in
humidity
%
barometer
mb
20260507174846 48 171 0.9 1.7 0.00 0.00 0.00 45 1013.5
20260507174343 47 209 0.9 0.9 0.00 0.00 0.00 45 1013.3
20260507173841 47 175 0.0 0.0 0.00 0.00 0.00 44 1013.5
20260507173337 47 222 2.6 2.6 0.00 0.00 0.00 43 1013.3
20260507172833 47 276 0.9 0.9 0.00 0.00 0.00 42 1013.5
20260507172331 47 1 1.7 2.6 0.00 0.00 0.00 45 1013.7
20260507171826 47 238 0.9 0.9 0.00 0.00 0.00 46 1013.7
20260507171323 48 209 0.9 0.9 0.00 0.00 0.00 45 1013.6
20260507170820 48 212 0.0 0.9 0.00 0.00 0.00 45 1013.7
20260507170317 47 82 1.7 1.7 0.00 0.00 0.00 43 1013.8
20260507165813 48 212 1.7 1.7 0.00 0.00 0.00 43 1013.9
20260507165309 48 75 0.9 1.7 0.00 0.00 0.00 44 1013.9
20260507164805 46 240 1.7 1.7 0.00 0.00 0.00 43 1013.9
20260507164302 47 222 0.9 1.7 0.00 0.00 0.00 42 1014.0
20260507163759 47 201 0.9 0.9 0.00 0.00 0.00 43 1014.1
20260507163257 46 225 1.7 2.6 0.00 0.00 0.00 44 1014.0
20260507162753 46 312 1.7 2.6 0.00 0.00 0.00 43 1014.1
20260507162249 47 256 0.9 1.7 0.00 0.00 0.00 43 1014.1
20260507161746 47 237 0.0 0.0 0.00 0.00 0.00 43 1014.1
20260507161243 47 125 0.9 0.9 0.00 0.00 0.00 44 1014.3
20260507160738 47 221 0.9 1.7 0.00 0.00 0.00 42 1014.2
20260507160235 47 218 0.9 0.9 0.00 0.00 0.00 42 1014.3
20260507155731 46 238 1.7 2.6 0.00 0.00 0.00 45 1014.2
20260507155227 46 182 0.9 1.7 0.00 0.00 0.00 43 1014.3
20260507154724 47 305 2.6 2.6 0.00 0.00 0.00 45 1014.1
20260507154222 47 85 1.7 2.6 0.00 0.00 0.00 44 1014.4
20260507153718 46 239 1.7 1.7 0.00 0.00 0.00 47 1014.4
20260507153214 46 209 2.6 3.5 0.00 0.00 0.00 45 1014.5
20260507152711 46 200 0.0 0.0 0.00 0.00 0.00 46 1014.4
20260507152207 46 239 1.7 2.6 0.00 0.00 0.00 44 1014.4
20260507151703 46 193 3.5 6.1 0.00 0.00 0.00 45 1014.4
20260507151200 46 219 0.0 0.0 0.00 0.00 0.00 47 1014.5
20260507150657 46 204 0.0 0.9 0.00 0.00 0.00 46 1014.3
20260507150154 45 227 0.9 0.9 0.00 0.00 0.00 50 1014.5
20260507145649 45 165 0.0 0.0 0.00 0.00 0.00 47 1014.4
20260507145147 46 228 0.9 1.7 0.00 0.00 0.00 50 1014.4
20260507144643 46 243 0.9 0.9 0.00 0.00 0.00 50 1014.5
20260507144141 45 187 2.6 6.1 0.00 0.00 0.00 49 1014.5
20260507143637 46 215 1.7 1.7 0.00 0.00 0.00 50 1014.5
20260507143135 46 193 0.9 0.9 0.00 0.00 0.00 50 1014.5
20260507142630 45 305 0.9 0.9 0.00 0.00 0.00 52 1014.5
20260507142127 44 214 0.0 0.0 0.00 0.00 0.00 55 1014.7
20260507141623 45 249 1.7 1.7 0.00 0.00 0.00 55 1014.8
20260507141120 45 230 0.0 0.9 0.00 0.00 0.00 53 1014.8
20260507140617 44 216 0.9 1.7 0.00 0.00 0.00 53 1014.6
20260507140114 44 313 1.7 1.7 0.00 0.00 0.00 51 1014.8
20260507135611 44 201 1.7 1.7 0.00 0.00 0.00 52 1014.5
20260507135109 45 211 1.7 1.7 0.00 0.00 0.00 54 1014.7
20260507134605 45 256 0.9 0.9 0.00 0.00 0.00 58 1014.6
20260507134101 45 217 1.7 2.6 0.00 0.00 0.00 59 1014.7
20260507133557 44 291 0.9 0.9 0.00 0.00 0.00 61 1014.6
20260507133055 43 205 0.9 1.7 0.00 0.00 0.00 64 1014.6
20260507132551 42 214 1.7 2.6 0.00 0.00 0.00 65 1014.7
20260507132048 42 148 0.0 1.7 0.00 0.00 0.00 67 1014.7
20260507131545 43 217 0.0 0.9 0.00 0.00 0.00 70 1014.8
20260507131042 42 196 0.9 1.7 0.00 0.00 0.00 68 1014.7
20260507130539 42 191 0.0 0.0 0.00 0.00 0.00 70 1014.8
20260507130037 41 196 0.0 0.9 0.00 0.00 0.00 72 1014.7
20260507125535 41 195 1.7 1.7 0.00 0.00 0.00 74 1014.9
20260507125032 41 184 0.0 0.0 0.00 0.00 0.00 73 1014.7
20260507124529 40 209 0.9 1.7 0.00 0.00 0.00 75 1014.7
20260507124026 40 204 0.0 0.9 0.00 0.00 0.00 75 1014.7
20260507123525 39 213 1.7 2.6 0.00 0.00 0.00 76 1014.3
20260507123021 38 199 0.9 0.9 0.00 0.00 0.00 80 1014.5
20260507122516 37 238 0.9 0.9 0.00 0.00 0.00 80 1014.2
20260507122012 36 192 0.0 0.0 0.00 0.00 0.00 85 1014.5
20260507121508 35 192 0.0 0.0 0.00 0.00 0.00 87 1014.5
20260507121004 34 187 0.0 0.0 0.00 0.00 0.00 92 1014.7
20260507120500 33 187 0.0 0.0 0.00 0.00 0.00 93 1014.5
20260507115957 33 187 0.0 0.0 0.00 0.00 0.00 93 1014.4
20260507115454 32 188 0.0 0.0 0.00 0.00 0.00 94 1014.4
20260507114949 32 187 0.0 0.0 0.00 0.00 0.00 94 1014.3
20260507114445 32 187 0.0 0.0 0.00 0.00 0.00 94 1014.2
20260507113943 31 187 0.0 0.0 0.00 0.00 0.00 95 1014.3
20260507113440 31 187 0.0 0.0 0.00 0.00 0.00 95 1014.3
20260507112937 31 187 0.0 0.0 0.00 0.00 0.00 95 1014.2
20260507112435 31 187 0.0 0.0 0.00 0.00 0.00 95 1013.9
20260507111931 30 187 0.0 0.0 0.00 0.00 0.00 95 1014.1
20260507111429 30 187 0.0 0.0 0.00 0.00 0.00 95 1014.2
20260507110925 30 187 0.0 0.0 0.00 0.00 0.00 95 1013.9
20260507110421 30 187 0.0 0.0 0.00 0.00 0.00 95 1014.0
20260507105918 30 187 0.0 0.0 0.00 0.00 0.00 95 1014.0
20260507105415 30 187 0.0 0.0 0.00 0.00 0.00 95 1014.1
20260507104912 30 187 0.0 0.0 0.00 0.00 0.00 95 1013.8
20260507104408 30 187 0.0 0.0 0.00 0.00 0.00 95 1014.0
20260507103904 30 187 0.0 0.0 0.00 0.00 0.00 95 1013.9
20260507103401 30 187 0.0 0.0 0.00 0.00 0.00 94 1013.7
20260507102857 30 187 0.0 0.0 0.00 0.00 0.00 94 1013.9
20260507102354 30 187 0.0 0.0 0.00 0.00 0.00 94 1013.7
20260507101851 30 187 0.0 0.0 0.00 0.00 0.00 94 1013.9
20260507101350 31 187 0.0 0.0 0.00 0.00 0.00 94 1013.9
20260507100848 31 187 0.0 0.0 0.00 0.00 0.00 94 1013.8
20260507100346 31 187 0.0 0.0 0.00 0.00 0.00 94 1013.7
20260507095843 31 187 0.0 0.0 0.00 0.00 0.00 93 1013.7
20260507095339 31 187 0.0 0.0 0.00 0.00 0.00 93 1013.6
20260507094837 31 187 0.0 0.0 0.00 0.00 0.00 93 1013.7
20260507094333 31 187 0.0 0.0 0.00 0.00 0.00 93 1013.6
20260507093830 32 187 0.0 0.0 0.00 0.00 0.00 92 1013.6
20260507093329 32 187 0.0 0.0 0.00 0.00 0.00 92 1013.4
20260507092826 32 187 0.0 0.0 0.00 0.00 0.00 92 1013.6
20260507092323 32 187 0.0 0.0 0.00 0.00 0.00 92 1013.5
20260507091819 32 187 0.0 0.0 0.00 0.00 0.00 91 1013.7
20260507091316 32 187 0.0 0.0 0.00 0.00 0.00 91 1013.7
20260507090811 33 187 0.0 0.0 0.00 0.00 0.00 90 1013.8
20260507090308 33 187 0.0 0.0 0.00 0.00 0.00 90 1013.6
20260507085805 33 187 0.0 0.0 0.00 0.00 0.00 90 1013.7
20260507085302 33 188 0.0 0.0 0.00 0.00 0.00 89 1013.5
20260507084759 34 188 0.0 0.0 0.00 0.00 0.00 89 1013.8
20260507084255 34 187 0.0 0.0 0.00 0.00 0.00 89 1013.7
20260507083753 34 187 0.0 0.0 0.00 0.00 0.00 88 1013.8
20260507083249 34 187 0.0 0.0 0.00 0.00 0.00 88 1013.8
20260507082745 35 187 0.0 0.0 0.00 0.00 0.00 87 1014.0
20260507082241 35 187 0.0 0.0 0.00 0.00 0.00 87 1013.8
20260507081738 35 187 0.0 0.0 0.00 0.00 0.00 86 1013.7
20260507081234 35 187 0.0 0.0 0.00 0.00 0.00 86 1013.8
20260507080731 35 187 0.0 0.0 0.00 0.00 0.00 85 1013.8
20260507080227 36 187 0.0 0.0 0.00 0.00 0.00 85 1013.8
20260507075722 36 187 0.0 0.0 0.00 0.00 0.00 84 1013.9
20260507075219 36 187 0.0 0.0 0.00 0.00 0.00 83 1014.1
20260507074715 37 187 0.0 0.0 0.00 0.00 0.00 82 1014.0
20260507074214 37 187 0.0 0.0 0.00 0.00 0.00 82 1014.2
20260507073710 37 187 0.0 0.0 0.00 0.00 0.00 82 1014.1
20260507073206 37 187 0.0 0.0 0.00 0.00 0.00 81 1014.0
20260507072705 37 187 0.0 0.0 0.00 0.00 0.00 82 1014.1
20260507072201 37 187 0.0 0.0 0.00 0.00 0.00 82 1014.2
20260507071659 37 187 0.0 0.0 0.00 0.00 0.00 81 1014.1
20260507071155 37 187 0.0 0.0 0.00 0.00 0.00 80 1014.2
20260507070652 37 187 0.0 0.0 0.00 0.00 0.00 80 1014.2
20260507070149 37 187 0.0 0.0 0.00 0.00 0.00 80 1014.4
20260507065645 37 187 0.0 0.0 0.00 0.00 0.00 80 1014.4
20260507065142 37 187 0.0 0.0 0.00 0.00 0.00 80 1014.3
20260507064640 37 187 0.0 0.0 0.00 0.00 0.00 81 1014.5
20260507064138 37 187 0.0 0.0 0.00 0.00 0.00 79 1014.4
20260507063636 37 187 0.0 0.0 0.00 0.00 0.00 79 1014.6
20260507063132 37 187 0.0 0.0 0.00 0.00 0.00 80 1014.6
20260507062629 38 187 0.0 0.0 0.00 0.00 0.00 80 1014.6
20260507062127 38 187 0.0 0.0 0.00 0.00 0.00 80 1014.7
20260507061624 38 188 0.0 0.0 0.00 0.00 0.00 79 1014.7
20260507061122 38 188 0.0 0.0 0.00 0.00 0.00 79 1014.7
20260507060620 38 188 0.0 0.0 0.00 0.00 0.00 78 1014.6
20260507060116 38 188 0.0 0.0 0.00 0.00 0.00 78 1014.8
20260507055612 39 187 0.0 0.0 0.00 0.00 0.00 77 1014.8
20260507055108 39 187 0.0 0.0 0.00 0.00 0.00 75 1014.7
20260507054604 39 187 0.0 0.0 0.00 0.00 0.00 75 1014.8
20260507054101 39 187 0.0 0.0 0.00 0.00 0.00 74 1014.7
20260507053559 39 187 0.0 0.0 0.00 0.00 0.00 77 1014.8
20260507053058 39 187 0.0 0.0 0.00 0.00 0.00 73 1014.9
20260507052555 39 187 0.0 0.0 0.00 0.00 0.00 73 1014.9
20260507052051 39 187 0.0 0.0 0.00 0.00 0.00 74 1014.9
20260507051549 40 187 0.0 0.0 0.00 0.00 0.00 74 1014.9
20260507051046 40 187 0.0 0.0 0.00 0.00 0.00 71 1014.9
20260507050542 39 187 0.0 0.0 0.00 0.00 0.00 77 1014.9
20260507050039 39 187 0.0 0.0 0.00 0.00 0.00 78 1014.9
20260507045536 39 187 0.0 0.0 0.00 0.00 0.00 76 1015.0
20260507045033 39 187 0.0 0.0 0.00 0.00 0.00 77 1015.1
20260507044529 39 187 0.0 0.0 0.00 0.00 0.00 80 1015.1
20260507044026 39 188 0.0 0.0 0.00 0.00 0.00 80 1015.0
20260507043522 39 188 0.0 0.0 0.00 0.00 0.00 77 1015.0
20260507043020 39 187 0.0 0.0 0.00 0.00 0.00 76 1015.3
20260507042516 39 187 0.0 0.0 0.00 0.00 0.00 79 1015.1
20260507042011 39 188 0.0 0.0 0.00 0.00 0.00 77 1014.9
20260507041509 39 187 0.0 0.0 0.00 0.00 0.00 77 1015.3
20260507041005 40 187 0.0 0.0 0.00 0.00 0.00 74 1015.1
20260507040501 40 187 0.0 0.0 0.00 0.00 0.00 73 1014.9
20260507035957 40 187 0.0 0.0 0.00 0.00 0.00 71 1014.9
20260507035454 40 187 0.0 0.0 0.00 0.00 0.00 69 1015.4
20260507034950 40 187 0.0 0.0 0.00 0.00 0.00 67 1015.4
20260507034447 40 187 0.0 0.0 0.00 0.00 0.00 67 1015.4
20260507033945 41 188 0.0 0.0 0.00 0.00 0.00 69 1015.4
20260507033443 41 188 0.0 0.0 0.00 0.00 0.00 66 1015.4
20260507032940 41 188 0.0 0.0 0.00 0.00 0.00 65 1015.5
20260507032437 41 187 0.0 0.0 0.00 0.00 0.00 64 1015.5
20260507031933 41 187 0.0 0.0 0.00 0.00 0.00 65 1015.5
20260507031429 41 188 0.0 0.0 0.00 0.00 0.00 66 1015.5
20260507030926 41 187 0.0 0.9 0.00 0.00 0.00 66 1015.4
20260507030424 40 187 0.0 0.0 0.00 0.00 0.00 67 1015.4
20260507025921 40 187 0.0 0.0 0.00 0.00 0.00 67 1015.4
20260507025418 40 187 0.0 0.0 0.00 0.00 0.00 67 1015.5
20260507024915 40 187 0.0 0.0 0.00 0.00 0.00 66 1015.3
20260507024413 40 187 0.0 0.0 0.00 0.00 0.00 66 1015.3
20260507023908 40 187 0.0 0.0 0.00 0.00 0.00 65 1015.5
20260507023405 40 187 0.0 0.0 0.00 0.00 0.00 65 1015.4
20260507022903 40 187 0.0 0.0 0.00 0.00 0.00 64 1015.5
20260507022359 40 187 0.0 0.0 0.00 0.00 0.00 65 1015.4
20260507021855 40 187 0.0 0.0 0.00 0.00 0.00 65 1015.1
20260507021350 40 187 0.0 0.0 0.00 0.00 0.00 64 1015.0
20260507020849 40 187 0.0 0.0 0.00 0.00 0.00 63 1015.0
20260507020345 40 187 0.0 0.0 0.00 0.00 0.00 62 1015.3
20260507015842 41 187 0.0 0.0 0.00 0.00 0.00 63 1015.1
20260507015340 41 187 0.0 0.0 0.00 0.00 0.00 63 1015.3
20260507014837 41 187 0.0 0.0 0.00 0.00 0.00 63 1015.3
20260507014333 41 187 0.0 0.0 0.00 0.00 0.00 62 1014.8
20260507013830 41 187 0.0 0.0 0.00 0.00 0.00 63 1015.0
20260507013327 41 187 0.0 0.9 0.00 0.00 0.00 61 1014.8
20260507012825 41 188 0.0 0.9 0.00 0.00 0.00 60 1015.0
20260507012320 41 191 0.0 0.0 0.00 0.00 0.00 62 1014.9
20260507011817 42 191 0.0 0.0 0.00 0.00 0.00 62 1014.8
20260507011314 42 191 0.0 0.0 0.00 0.00 0.00 62 1014.8
20260507010814 42 191 0.0 0.0 0.00 0.00 0.00 62 1014.8
20260507010310 42 191 0.0 0.0 0.00 0.00 0.00 62 1014.5
20260507005807 42 191 0.0 0.0 0.00 0.00 0.00 64 1014.7
20260507005305 42 191 0.0 0.0 0.00 0.00 0.00 62 1014.6
20260507004800 43 191 0.0 0.0 0.00 0.00 0.00 60 1014.7
20260507004258 43 191 0.0 0.0 0.00 0.00 0.00 60 1014.6
20260507003754 43 191 0.0 0.0 0.00 0.00 0.00 59 1014.7
20260507003249 44 191 0.0 0.0 0.00 0.00 0.00 56 1014.4
20260507002745 44 191 0.0 0.0 0.00 0.00 0.00 55 1014.3
20260507002242 44 191 0.0 0.0 0.00 0.00 0.00 52 1014.5
20260507001739 45 214 0.0 0.0 0.00 0.00 0.00 51 1014.3
20260507001236 45 216 0.0 0.0 0.00 0.00 0.00 51 1014.2
20260507000732 45 191 0.9 0.9 0.00 0.00 0.00 51 1014.2
20260507000228 45 74 0.0 0.9 0.00 0.00 0.00 50 1014.1
20260506235725 45 81 0.0 0.9 0.00 0.00 0.00 50 1014.1
20260506235220 46 87 0.0 0.9 0.00 0.00 0.00 50 1014.2
20260506234717 46 195 0.9 0.9 0.00 0.00 0.00 47 1014.2
20260506234215 46 202 0.9 0.9 0.00 0.00 0.00 49 1014.1
20260506233712 46 249 1.7 1.7 0.00 0.00 0.00 46 1014.1
20260506233209 47 221 1.7 1.7 0.00 0.00 0.00 48 1014.2
20260506232706 47 207 0.0 0.0 0.00 0.00 0.00 47 1014.3
20260506232200 47 194 1.7 1.7 0.00 0.00 0.00 46 1014.2
20260506231658 47 207 0.9 0.9 0.00 0.00 0.00 46 1014.1
20260506231156 47 208 2.6 2.6 0.00 0.00 0.00 46 1014.1
20260506230652 48 219 3.5 3.5 0.00 0.00 0.00 45 1014.1
20260506230149 48 219 0.0 0.9 0.00 0.00 0.00 45 1014.1
20260506225646 48 218 0.0 0.9 0.00 0.00 0.00 46 1014.1
20260506225143 48 248 0.0 0.0 0.00 0.00 0.00 45 1014.2
20260506224639 48 224 0.9 0.9 0.00 0.00 0.00 45 1014.2
20260506224136 47 200 0.9 0.9 0.00 0.00 0.00 45 1014.2
20260506223632 48 295 0.9 0.9 0.00 0.00 0.00 43 1014.3
20260506223128 48 207 0.0 0.9 0.00 0.00 0.00 45 1014.1
20260506222626 49 194 1.7 1.7 0.00 0.00 0.00 43 1014.3
20260506222122 48 13 0.0 0.0 0.00 0.00 0.00 44 1014.3
20260506221619 49 233 0.9 0.9 0.00 0.00 0.00 44 1014.4
20260506221117 48 291 0.9 0.9 0.00 0.00 0.00 43 1014.3
20260506220614 48 250 0.9 1.7 0.00 0.00 0.00 44 1014.2
20260506220109 48 44 0.9 1.7 0.00 0.00 0.00 46 1014.2
20260506215606 48 205 1.7 2.6 0.00 0.00 0.00 46 1014.3
20260506215101 48 202 0.9 0.9 0.00 0.00 0.00 45 1014.2
20260506214559 49 317 3.5 5.2 0.00 0.00 0.00 44 1014.2
20260506214056 48 213 0.0 0.0 0.00 0.00 0.00 44 1014.2
20260506213554 48 208 0.9 1.7 0.00 0.00 0.00 44 1014.2
20260506213051 48 231 0.9 1.7 0.00 0.00 0.00 45 1014.2
20260506212547 50 202 1.7 2.6 0.00 0.00 0.00 43 1014.3
20260506212042 50 90 0.9 0.9 0.00 0.00 0.00 43 1014.1
20260506211538 50 225 1.7 2.6 0.00 0.00 0.00 43 1014.1
20260506211036 48 40 0.0 0.0 0.00 0.00 0.00 44 1014.3
20260506210532 48 172 0.0 0.9 0.00 0.00 0.00 45 1014.0
20260506210029 48 216 1.7 1.7 0.00 0.00 0.00 44 1014.2
20260506205526 48 61 1.7 1.7 0.00 0.00 0.00 45 1014.2
20260506205021 51 231 3.5 3.5 0.00 0.00 0.00 42 1014.2
20260506204519 50 187 0.0 0.9 0.00 0.00 0.00 44 1013.9
20260506204016 50 151 0.0 0.0 0.00 0.00 0.00 42 1014.0
20260506203514 50 132 0.0 0.0 0.00 0.00 0.00 43 1014.1
20260506203010 51 241 1.7 1.7 0.00 0.00 0.00 44 1013.8
20260506202508 49 182 0.9 1.7 0.00 0.00 0.00 43 1014.1
20260506202004 50 206 2.6 2.6 0.00 0.00 0.00 40 1014.0
20260506201502 50 228 0.0 0.9 0.00 0.00 0.00 41 1014.1
20260506200958 52 272 3.5 3.5 0.00 0.00 0.00 39 1014.1
20260506200454 52 248 1.7 1.7 0.00 0.00 0.00 41 1014.1
20260506195951 52 256 0.9 0.9 0.00 0.00 0.00 38 1014.1
20260506195448 52 56 2.6 2.6 0.00 0.00 0.00 42 1014.1
20260506194944 52 138 0.9 1.7 0.00 0.00 0.00 38 1014.2
20260506194442 50 22 2.6 3.5 0.00 0.00 0.00 44 1014.2
20260506193938 51 205 0.9 1.7 0.00 0.00 0.00 39 1014.2
20260506193436 49 220 0.9 1.7 0.00 0.00 0.00 41 1014.1
20260506192932 50 210 2.6 3.5 0.00 0.00 0.00 40 1014.2
20260506192429 50 60 0.9 0.9 0.00 0.00 0.00 42 1014.2
20260506191926 49 296 1.7 1.7 0.00 0.00 0.00 45 1014.3
20260506191422 50 89 0.9 0.9 0.00 0.00 0.00 42 1014.2
20260506190919 50 301 0.9 0.9 0.00 0.00 0.00 40 1014.3
20260506190416 50 182 0.9 0.9 0.00 0.00 0.00 40 1014.2
20260506185913 51 268 1.7 2.6 0.00 0.00 0.00 40 1014.1
20260506185410 50 165 0.0 0.0 0.00 0.00 0.00 43 1014.4
20260506184907 51 17 1.7 1.7 0.00 0.00 0.00 39 1014.3
20260506184404 50 168 0.9 1.7 0.00 0.00 0.00 40 1014.4
20260506183901 50 172 0.0 0.9 0.00 0.00 0.00 42 1014.4
20260506183356 50 48 1.7 1.7 0.00 0.00 0.00 43 1014.4
20260506182854 49 149 0.0 0.9 0.00 0.00 0.00 46 1014.5
20260506182351 48 78 0.0 0.9 0.00 0.00 0.00 45 1014.3
20260506181848 48 207 1.7 2.6 0.00 0.00 0.00 42 1014.4
20260506181346 49 320 1.7 1.7 0.00 0.00 0.00 44 1014.6
20260506180843 46 147 0.0 0.0 0.00 0.00 0.00 45 1014.6
20260506180339 46 96 0.9 0.9 0.00 0.00 0.00 45 1014.5
20260506175835 46 205 3.5 5.2 0.00 0.00 0.00 43 1014.7
20260506175332 47 80 0.9 0.9 0.00 0.00 0.00 45 1014.8